Location: ???? ?????
(37.9132°N, 22.9869°E)
Time: 04:54:46
(UTC+00:00)

Daily predictions for brighter satellites

Satellite Brightness Start Highest point End
(mag) Time Altitude Azimuth Time Altitude Azimuth Time Altitude Azimuth
CZ-3 R/B 4.3 00:03:17 10° W 01:05:16 57° SSE 01:15:42 10° ESE
Cosmos 2360 Rocket 3.6 02:38:50 30° NE 02:39:43 31° ENE 02:44:39 10° ESE
CZ-3 Stage 3 4.1 02:40:00 47° SW 02:42:06 51° S 03:10:14 10° ESE
Cosmos 2219 Rocket 4.1 02:50:15 17° NNE 02:53:01 24° ENE 02:57:31 10° ESE
NOSS 3-1 (C) 4.1 03:02:07 60° WSW 03:02:16 60° WSW 03:11:19 10° SSE
Cosmos 2333 Rocket 2.2 03:04:01 75° NE 03:04:11 76° ENE 03:09:53 10° SSE
Cosmos 2322 Rocket 2.6 03:06:16 48° NNE 03:07:32 60° ENE 03:13:06 10° SE
Cosmos 1092 Rocket 3.9 03:05:16 10° S 03:11:32 86° E 03:17:46 10° N
Cosmos-2242 3.3 03:22:00 61° SE 03:22:00 61° SE 03:25:37 10° SSE
COSMO-SKYMED 1 4.4 03:18:53 10° SE 03:22:20 27° ENE 03:25:39 11° NNE
Celestis-02/Orion 38 4.4 03:17:27 10° NNE 03:22:35 81° WNW 03:23:16 67° SW
Cosmos 1743 4.3 03:22:03 10° SSE 03:24:52 28° E 03:27:27 12° NNE
Cosmos 2058 Rocket 3.0 03:28:36 74° S 03:28:36 74° S 03:32:34 10° S
SL-24 R/B 4.3 03:27:24 10° NNE 03:32:08 72° E 03:36:14 10° S
SKYMED 2 4.1 03:27:57 10° SSE 03:32:11 57° ENE 03:34:35 25° N
USA 59 Rocket 2.9 03:36:32 10° SSW 03:36:32 10° SSW 03:36:39 10° SSW
Cosmos 2333 4.3 03:32:34 28° NNW 03:35:41 73° ENE 03:41:20 10° SSE
SL-4 R/B 2.4 03:37:06 44° E 03:37:06 44° E 03:39:29 10° ESE
SL-16 R/B 2.7 03:40:01 38° WSW 03:40:01 38° WSW 03:44:35 10° S
Cosmos 1758 Rocket 3.5 03:41:43 10° S 03:46:07 87° E 03:50:30 10° N
ISS -3.7 03:53:44 62° N 03:53:44 62° N 03:56:47 10° NE
ATLAS 2AS CENTAUR R/B 2.7 03:49:00 10° SW 03:56:00 61° NW 04:02:50 10° NNE
Cosmos 2151 3.1 03:55:42 10° S 03:59:45 71° E 04:03:51 10° NNE
OAO 2 Rocket 3.6 04:01:24 29° WSW 04:03:55 61° S 04:09:01 10° ESE
IRIDIUM 106 4.2 03:59:15 10° S 04:04:27 80° W 04:09:42 10° N
Cosmos 1125 Rocket 3.9 03:59:51 10° NNW 04:05:03 62° ENE 04:10:11 10° SSE
BREEZE-M DEB (TANK) 3.7 04:00:07 10° SW 04:05:49 60° SE 04:08:26 10° ENE
Cosmos 1626 Rocket 3.8 04:01:52 10° SSW 04:06:05 45° W 04:10:18 10° N
Okean 1 4.4 04:09:42 23° SW 04:09:42 23° SW 04:11:34 10° SSW
SL-08 ROCKET BODY 4.3 04:09:32 10° SSW 04:15:15 58° W 04:21:02 10° N
Cosmos 2208 Rocket 4.4 04:10:24 10° S 04:15:34 66° ESE 04:20:43 10° NNE
USA 290 3.7 04:12:51 10° S 04:15:52 40° ESE 04:18:54 10° NE
Cosmos 2297 Rocket 3.9 04:11:41 10° S 04:16:46 36° ESE 04:21:53 10° NE
Cosmos 192 4.2 04:12:53 12° NNW 04:17:28 81° WSW 04:22:20 10° SSE
BREEZE-M DEB (TANK) 4.5 04:17:03 21° W 04:18:56 26° SW 04:21:50 10° S
Cosmos 2360 Rocket 2.9 04:20:38 20° NW 04:23:37 33° WSW 04:28:34 10° SSW
Meteor 1-20 Rocket 4.2 04:20:17 10° S 04:25:55 86° W 04:31:28 10° N
IRS-1D 4.3 04:23:49 10° N 04:28:08 29° WNW 04:32:30 10° SW
Orbus 7S? 3.4 04:26:42 18° NNW 04:28:25 46° NE 04:31:43 10° ESE
Cosmos 2221 2.3 04:28:05 10° NNW 04:32:11 64° W 04:36:16 10° S
IGS 5A 3.3 04:31:45 10° N 04:35:44 66° WNW 04:39:41 10° SSW
Cosmos 2219 Rocket 2.5 04:31:59 11° NW 04:37:07 45° WSW 04:42:25 10° S
OAO 3 Rocket 3.5 04:33:23 14° W 04:37:09 56° S 04:41:45 10° ESE
Helios 1A Rocket 3.0 04:34:58 10° SSW 04:38:04 36° W 04:41:03 11° NNW
Cosmos 2344 3.5 04:31:43 10° SW 04:40:05 81° WNW 04:47:18 10° NNE
Cosmos 2237 Rocket 4.1 04:35:29 10° N 04:40:06 25° ENE 04:44:43 10° ESE
BREEZE-M DEB (TANK) 4.4 04:37:37 10° WSW 04:42:29 86° NW 05:04:46 10° ENE
USA 229 4.5 04:35:31 10° NNW 04:43:05 64° NE 04:51:16 10° SE
USA 229 DEB 4.5 04:35:36 10° NNW 04:43:10 64° NE 04:51:21 10° SE
Meteor 1-27 Rocket 4.2 04:39:41 10° N 04:45:26 67° E 04:51:01 10° SSE
Cosmos 1812 Rocket 3.8 04:41:57 10° NNW 04:46:06 46° W 04:50:16 10° SSW
Cosmos 1602 Rocket 4.3 04:42:22 10° SW 04:46:19 31° WNW 04:50:17 10° NNW
Cosmos 2333 Rocket 3.9 04:46:06 12° W 04:47:40 13° W 04:50:11 10° WSW
Cosmos 1484 Rocket 3.1 04:44:47 10° N 04:47:49 32° WNW 04:50:49 10° SW
ARIANE 5 R/B 3.4 04:43:38 10° NNE 04:48:46 55° E 04:53:50 10° S
Cosmos 44 3.9 04:44:46 10° WSW 04:48:49 31° NW 04:53:06 10° NNE
SMAP 3.2 04:44:42 10° NNE 04:49:22 84° ESE 04:54:02 10° SSW
Cosmos 2322 Rocket 3.7 04:48:07 12° WNW 04:50:57 17° W 04:54:24 10° SW
Landsat 7 4.1 04:48:00 10° NNE 04:52:40 73° ESE 04:57:17 10° S
Cosmos 1842 2.7 04:51:49 10° NNW 04:55:06 67° W 04:58:21 10° S
COSMO-SKYMED 1 3.8 04:54:28 10° SW 04:57:36 21° W 05:00:46 10° NW
IRIS 3.7 04:55:25 10° WSW 04:58:17 74° NNW 05:01:06 10° ENE
Cosmos 2315 Rocket 4.0 04:51:57 10° N 04:58:18 84° W 05:04:34 10° S
Cosmos 1743 4.3 04:57:45 10° W 04:58:29 11° WNW 04:59:13 10° WNW
Cosmos 773 Rocket 4.2 04:54:43 10° SW 04:59:38 47° WNW 05:04:35 10° N
ARIANE 6 FM1 Upper Stage 3.4 04:56:14 10° WSW 04:59:51 30° NW 05:03:25 10° NNE
BREEZE M DEB (TANK) 3.7 04:58:48 10° NW 05:00:49 18° N 05:04:03 10° NE
Meteor 1-5 Rocket 4.1 04:56:33 10° S 05:01:56 86° W 05:07:16 10° N
S3M 4.0 04:56:02 10° NNW 05:02:03 59° W 05:08:00 10° S
MOS 1 Rocket 3.9 04:57:40 10° NNE 05:02:59 74° E 05:08:02 10° S
BREEZE-M DEB (TANK) 3.3 04:59:30 10° WNW 05:03:01 84° NNE 05:13:58 10° ESE
Okean 1-7 Rocket 4.4 05:02:14 10° SW 05:06:08 29° WNW 05:10:01 10° NNW
ATLAS CENTAUR R/B 0.8 05:03:51 10° SSW 05:07:09 86° ESE 05:10:29 10° NNE
CBERS-1 4.4 05:02:27 10° N 05:07:13 42° WNW 05:11:58 10° SW
Cosmos 2227 Rocket 3.8 05:03:31 10° S 05:08:45 41° ESE 05:14:01 10° NE
Cosmos 972 Rocket 4.3 05:03:04 10° NNW 05:09:13 75° WSW 05:14:39 10° S
ATLAS 3B R/B 3.1 05:03:19 10° NNW 05:11:08 85° ENE 05:18:26 10° SSE
Cosmos 1076 Rocket 3.6 05:07:02 10° SSW 05:11:09 55° W 05:15:19 10° N
Cosmos 2322 3.8 05:05:35 10° NNW 05:11:10 62° WSW 05:16:44 10° S
Cosmos 1655 Rocket 4.0 05:04:53 10° SSW 05:11:10 69° W 05:17:29 10° N
Cosmos 2150 Rocket 4.1 05:07:08 10° NNW 05:12:35 89° WSW 05:17:55 10° SSE
